Regional Weather Roundup
Issued by NWS

Home | Current Version | Previous Version | Text Only | Print | Product List | Glossary Off
Versions: 1 2 3 4 5 6 7 8 9 10 11 12 13 14 15 16 17 18 19 20 21 22 23 24 25 26 27 28 29 30 31 32 33 34 35 36 37 38 39 40 41 42 43 44 45 46 47 48 49 50

729
ASUS43 KBIS 230502
RWRND

NORTH DAKOTA REGIONAL WEATHER ROUNDUP
NATIONAL WEATHER SERVICE BISMARCK ND
1200 AM CDT SAT SEP 23 2017

NOTE: "FAIR" INDICATES FEW OR NO CLOUDS BELOW 12,000 FEET WITH NO
SIGNIFICANT WEATHER AND/OR OBSTRUCTIONS TO VISIBILITY.


NDZ001>003-009>011-017-230600-
NORTHWEST NORTH DAKOTA

CITY           SKY/WX    TMP DP  RH WIND       PRES   REMARKS
WILLISTON      CLOUDY    44  41  89 N9        30.04F
MINOT          CLOUDY    48  45  89 NW13      30.01R
MINOT AFB      CLOUDY    47  45  91 NW8       30.00R
$$

NDZ018>021-031>035-040>046-230600-
SOUTHWEST NORTH DAKOTA

CITY           SKY/WX    TMP DP  RH WIND       PRES   REMARKS
BISMARCK       CLOUDY    50  44  80 N16G28    29.96S
GARRISON         N/A     47  44  90 N9G17     29.98F
HETTINGER ARPT LGT RAIN  43  40  89 N9        30.01F
$$

NDZ004>008-012>016-024-026-027-054-230600-
NORTHEAST NORTH DAKOTA

CITY           SKY/WX    TMP DP  RH WIND       PRES   REMARKS
GRAND FORKS    CLOUDY    54  52  93 N21       29.77R
GRND FRKS AFB  CLOUDY    53  50  90 N17G25    29.80R
DEVILS LAKE    CLOUDY    50  47  89 N20G28    29.90R
$$

NDZ022-023-025-028>030-036>039-047>053-230600-
SOUTHEAST NORTH DAKOTA

CITY           SKY/WX    TMP DP  RH WIND       PRES   REMARKS
FARGO          CLOUDY    57  53  86 NW16      29.79R
JAMESTOWN      CLOUDY    51  49  92 N15G22    29.86R
$$





USA.gov is the U.S. government's official web portal to all federal, state and local government web resources and services.